Voltar ao catálogo

CZ-3C DEB

AtivoGTO
NORAD 40835·DEBRIS·🇨🇳 China

Lançado Oct 31, 2010 de Xichang Satellite Launch Center

Loading…

TLE

ObsoletoSource: Space-Track

Época: Sep 10, 2026, 22:30 UTC

1 40835U 10057BC  26253.93815548  .00000065  00000-0  14120-2 0  9995
2 40835  20.1705  83.6935 7193275 192.9064 127.5093  2.20292088 14258

Acompanhe CZ-3C DEB em tempo real com AllMySat

Download on the App Store